Regional Weather Roundup
Issued by NWS

Home | Current Version | Previous Version | Graphics & Text | Print | Product List | Glossary On
Versions: 1 2 3 4 5 6 7 8 9 10 11 12 13 14 15 16 17 18 19 20 21 22 23 24 25 26 27 28 29 30 31 32 33 34 35 36 37 38 39 40 41 42 43 44 45 46 47 48 49 50
000
ASUS43 KLMK 172310
RWRKY
KENTUCKY REGIONAL WEATHER ROUNDUP
NATIONAL WEATHER SERVICE LOUISVILLE KY
700 PM EDT TUE OCT 17 2017

NOTE "FAIR" INDICATES FEW OR NO CLOUDS BELOW 12,000 FEET
WITH NO SIGNIFICANT WEATHER AND/OR OBSTRUCTIONS TO VISIBILITY.

KYZ001>023-026-027-061>063-070>075-180000-
WESTERN AND SOUTH CENTRAL KENTUCKY

CITY           SKY/WX    TMP DP  RH WIND       PRES   REMARKS
PADUCAH        CLEAR     62  43  49 SE3       30.23S
HENDERSON      PTCLDY    62  45  53 SE3       30.25S
OWENSBORO      CLEAR     63  43  48 SE5       30.26S
HOPKINSVILLE   CLOUDY    64  42  45 CALM      30.24S
BOWLING GREEN  CLEAR     61  45  55 E5        30.26S
GLASGOW        CLEAR     60  41  49 CALM      30.26S
$$

KYZ024-025-028>034-038-045-046-053-180000-
NORTH CENTRAL KENTUCKY

CITY           SKY/WX    TMP DP  RH WIND       PRES   REMARKS
LOUISVILLE/SDF PTCLDY    63  40  42 SE6       30.26S
LOUISVILLE/LOU PTCLDY    63  41  44 S3        30.27S
FORT KNOX      CLEAR     62  40  45 CALM      30.24F
$$

KYZ035>037-039>044-047>052-055>060-089>105-180000-
NORTHEAST KENTUCKY

CITY           SKY/WX    TMP DP  RH WIND       PRES   REMARKS
LEXINGTON      CLEAR     61  41  47 CALM      30.28S
COVINGTON      PTCLDY    58  43  57 S5        30.26S
FRANKFORT      CLEAR     57  43  59 CALM      30.26S
$$

KYZ054-064>069-076>088-106>120-180000-
SOUTHEAST KENTUCKY

CITY           SKY/WX    TMP DP  RH WIND       PRES   REMARKS
JACKSON        CLEAR     60  37  42 E3        30.28S
LONDON         CLEAR     59  40  49 CALM      30.27S
SOMERSET       CLEAR     59  39  47 CALM      30.29R
MIDDLESBORO    CLEAR     56  45  65 NW3       30.28R
MONTICELLO     CLEAR     56  46  69 VRB6      30.29R
$$




USA.gov is the U.S. government's official web portal to all federal, state and local government web resources and services.